Regional Weather Roundup
Issued by NWS

Current Version | Previous Version | Text Only | Print | Product List | Glossary Off
Versions: 1 2 3 4 5 6 7 8 9 10 11 12 13 14 15 16 17 18 19 20 21 22 23 24 25 26 27 28 29 30 31 32 33 34 35 36 37 38 39 40 41 42 43 44 45 46 47 48 49 50

000
ASUS44 KMEG 301110
RWRTN
TENNESSEE HOURLY STATE WEATHER ROUNDUP
NATIONAL WEATHER SERVICE MEMPHIS TN
600 AM CDT SAT JUL 30 2016

TNZ002-004-019-021-049-052-054-088>092-301200-
WEST TENNESSEE

CITY           SKY/WX    TMP DP  RH WIND       PRES   REMARKS
MEMPHIS INTL   CLOUDY    74  71  91 CALM      29.98R
NWS MEMPHIS      N/A     71 N/A N/A MISG        N/A
JACKSON        CLOUDY    72  71  97 SW3       30.00R
DYERSBURG      CLEAR    N/A N/A N/A MISG        N/A
UNION CITY     CLOUDY    72  72 100 CALM      29.97R
PARIS          CLOUDY    70  70 100 SW6       29.99R
LEXINGTON      CLOUDY    70  70 100 S3        30.00R
$$

TNZ008-025-027-028-033-062-065-066-301200-
NORTH MIDDLE TENNESSEE

CITY           SKY/WX    TMP DP  RH WIND       PRES   REMARKS
NASHVILLE      CLOUDY    74  71  91 CALM      30.00R
CLARKSVILLE    MOCLDY    71  69  93 S3        29.98R
SMYRNA         CLOUDY    72  72 100 SW5       30.01R
COOKEVILLE     CLEAR     72  72 100 CALM      30.01R
CROSSVILLE     CLOUDY    70  69  97 CALM      30.06R
$$

TNZ061-075-076-078-094-096-097-301200-
SOUTH MIDDLE TENNESSEE

CITY           SKY/WX    TMP DP  RH WIND       PRES   REMARKS
TULLAHOMA      MOCLDY    70  68  94 CALM      30.04R
WINCHESTER     MOCLDY    72  70  94 CALM      30.03R
MCMINNVILLE    CLEAR     72  72 100 CALM      30.03R
COLUMBIA       PTCLDY   N/A N/A N/A SW3       30.00S
SHELBYVILLE    CLEAR     70  70 100 CALM      30.03R
$$

TNZ017-018-042-046-047-301200-
NORTHEAST TENNESSEE

CITY           SKY/WX    TMP DP  RH WIND       PRES   REMARKS
TRI CITIES     CLOUDY    69  67  93 CALM      30.04R FOG
$$

TNZ012-013-036-069-073-074-301200-
CENTRAL EAST TENNESSEE

CITY           SKY/WX    TMP DP  RH WIND       PRES   REMARKS
KNOXVILLE      MOCLDY    72  69  90 SW5       30.01R
OAK RIDGE      CLOUDY    74  69  85 CALM      30.02R
GATLINBURG     MOCLDY    68  66  94 CALM      30.02R
$$

TNZ083-085-099-301200-
SOUTHEAST TENNESSEE

CITY           SKY/WX    TMP DP  RH WIND       PRES   REMARKS
CHATTANOOGA    MOCLDY    75  71  87 CALM      30.00R
$$

SKY/WX REPORTED AS FAIR MEANS FEW OR NO CLOUDS BELOW
12 THOUSAND FEET.





USA.gov is the U.S. government's official web portal to all federal, state and local government web resources and services.